Location: Austin
(30.3000°N, 97.7500°W)
Time: 11:30:12
(UTC-05:00)

Meteor 2-4 Rocket - Pass Details

Date: 26 May 2023
Orbit: 799 x 908 km, 81.2° (Epoch: 30 May)

Event Time Altitude Azimuth Distance (km) Brightness Sun altitude
Exits shadow 22:52:22 45° 72° (ENE) 1,222 4.3 -26.3°
Drops below altitude 10° 22:57:15 10° 21° (NNE) 2,575 6.5 -27.0°
Sets 22:59:46 0° 16° (NNE) 3,507 7.4 -27.3°
